{"data":{"norad_id":50201,"epoch":"2026-05-25T04:48:12.928032Z","epoch_age_seconds":68134,"freshness":"FRESH","line1":"1 50201U 21125AX  26145.20014963  .00568231  17633-3  61495-3 0  9998","line2":"2 50201  53.1825 112.3878 0004488  50.3438 309.7992 16.09341973250291","mean_motion":16.09341973,"eccentricity":0.0004488,"inclination_deg":53.1825,"raan_deg":112.3878,"arg_perigee_deg":50.3438,"mean_anomaly_deg":309.7992,"bstar":0.00061495,"rev_number":25029,"period_min":89.477564380905,"perigee_km":245.67494607856,"apogee_km":251.62314923494,"semimajor_km":6626.7860476568,"source":"CELESTRAK","updated_at":"2026-05-25T13:38:16.872910Z"}}